Temp
21 21 21 21 22 22 21 21 21 21 21 21 20 20 20 19 18 18 18 17 17 18 18 16 16 16 16 16 16 16 17 17 16 16 16 16 16 15 15 15 15 15 14
21 21 22 22 22 22 22 21 21 20 20 20 20 20 20 20 19 19 18 17 17 17 18 17 16 16 16 16 16 16 16 16 16 15 15 15 15 15 15 15 15 14 14
21 22 22 22 22 23 23 23 21 21 21 20 20 20 20 20 20 20 19 19 18 18 17 17 17 16 15 15 15 15 16 16 15 15 15 16 15 15 15 15 15 15 14
22 22 22 22 23 24 23 23 23 22 21 20 20 20 20 20 19 19 18 18 18 17 16 16 16 15 15 16 16 16 15 15 15 14 14 15 15 15 15 14 14 14 14
24 23 22 22 23 22 22 21 22 21 21 20 19 19 19 19 18 18 17 17 17 16 16 16 16 15 15 16 15 15 15 15 15 15 15 15 14 14 14 14 14 14 14
25 24 24 23 22 22 21 21 20 20 20 19 19 19 18 18 18 18 17 16 16 16 16 15 15 15 16 15 15 15 15 15 15 15 14 15 14 14 13 13 12 12 12
27 25 25 24 23 23 22 21 20 20 20 20 19 18 17 16 16 16 16 16 16 16 15 15 15 16 15 15 15 15 15 15 15 14 14 14 13 13 12 12 12 11 11
27 26 25 25 24 23 22 21 21 20 20 19 19 18 17 16 15 16 16 16 16 15 15 15 16 16 15 15 16 15 15 15 14 14 14 13 13 12 12 11 11 11 11
27 27 26 25 24 23 22 21 20 20 19 18 18 17 16 15 14 15 16 16 15 15 15 15 16 16 16 15 15 14 14 14 14 14 13 12 12 12 12 12 12 12 11
26 26 25 24 23 22 21 21 20 19 18 17 17 16 16 15 15 15 15 15 14 15 15 15 15 15 15 15 14 14 14 14 13 12 12 12 12 12 12 12 12 11 11
25 24 23 23 22 21 21 20 18 17 17 17 16 16 16 16 15 15 15 14 14 14 15 15 14 15 15 15 14 14 14 13 13 12 12 12 12 12 12 12 12 11 10
23 22 22 21 21 20 20 18 18 17 17 17 16 16 16 15 15 15 15 14 15 15 14 14 14 15 15 15 14 14 13 12 12 12 12 12 12 12 12 12 11 11 11
22 21 20 20 19 19 18 17 17 17 16 16 16 17 16 15 15 15 15 15 15 15 15 15 15 15 14 14 14 13 13 12 11 11 11 11 11 11 11 11 10 10 10
20 20 20 19 18 18 17 17 17 16 16 16 16 16 16 15 16 15 15 15 15 15 15 15 14 14 14 14 13 13 12 12 11 11 10 10 10 10 10 10 10 10 9
20 19 18 17 17 17 16 16 16 16 16 16 16 16 15 15 15 15 15 16 15 15 14 14 14 14 14 14 13 12 12 11 11 10 10 10 10 9 9 9 9 9 9
19 18 17 16 16 16 16 15 15 16 16 16 16 16 16 15 15 15 15 15 15 14 13 13 13 13 14 14 13 12 12 11 11 11 10 10 9 9 9 9 9 9 9
17 17 16 16 16 15 16 16 15 15 15 15 15 16 16 15 15 15 15 15 14 13 13 13 14 14 14 13 12 12 12 11 11 10 9 9 9 9 9 9 9 9 9
18 18 17 18 18 18 17 17 16 16 15 16 15 16 15 15 15 15 14 14 13 14 14 13 13 13 13 12 11 11 10 10 10 9 9 9 8 9 9 9 9 9 9
18 18 19 20 19 19 18 18 17 17 16 17 16 16 15 15 15 14 14 14 13 14 14 13 13 12 12 11 11 10 9 9 8 8 8 8 9 8 8 9 9 9 10
18 18 19 19 19 19 18 18 18 18 16 17 17 16 16 15 14 14 14 13 13 13 13 13 12 11 11 10 9 9 8 8 8 8 8 8 8 8 8 8 9 9 10
18 18 18 19 19 18 18 18 18 18 18 17 16 16 16 15 15 14 14 13 13 12 12 12 11 10 10 9 9 8 8 8 8 8 8 8 8 8 8 8 9 9 10
19 18 18 18 18 18 18 18 18 18 18 17 16 16 15 15 14 14 14 13 12 12 12 11 10 10 10 9 9 8 8 8 8 8 7 7 7 7 8 8 8 9 9
19 18 18 18 18 18 17 17 17 17 16 15 15 15 14 14 13 14 14 12 12 11 11 11 10 9 9 9 8 7 7 8 8 7 6 6 6 7 7 7 8 8 9
17 17 18 17 17 17 16 16 15 15 15 15 15 14 13 13 13 13 13 12 12 11 10 10 9 9 9 8 8 7 7 7 7 6 6 6 6 6 7 7 8 8 8
15 16 16 15 16 16 15 16 16 16 15 15 14 13 13 13 13 13 11 11 11 11 10 10 9 8 8 7 7 7 7 7 6 6 6 6 6 6 7 7 7 8 8
16 16 16 15 15 15 15 15 16 15 15 15 15 14 13 13 12 11 11 11 11 10 9 9 9 8 8 7 6 6 6 6 6 6 6 6 6 6 6 6 7 7 8
Height
1491 1496 1501 1505 1508 1513 1517 1521 1524 1529 1532 1533 1534 1536 1539 1540 1542 1545 1545 1546 1546 1545 1544 1551 1554 1553 1555 1557 1558 1559 1559 1560 1559 1559 1559 1558 1557 1555 1553 1552 1550 1548 1546
1484 1489 1493 1497 1502 1506 1510 1514 1518 1522 1525 1529 1529 1531 1533 1535 1536 1538 1540 1541 1541 1542 1542 1543 1547 1551 1552 1553 1554 1555 1555 1555 1556 1554 1554 1554 1552 1550 1547 1545 1544 1541 1540
1477 1481 1485 1490 1494 1498 1501 1507 1512 1515 1518 1520 1522 1523 1524 1526 1528 1530 1532 1535 1537 1538 1538 1538 1540 1544 1546 1548 1549 1550 1552 1551 1550 1550 1548 1548 1546 1544 1542 1539 1537 1535 1535
1470 1474 1478 1482 1486 1490 1495 1499 1504 1507 1509 1512 1514 1517 1520 1521 1523 1526 1529 1531 1532 1533 1534 1534 1536 1540 1542 1543 1544 1546 1547 1545 1544 1543 1543 1542 1540 1538 1536 1533 1530 1529 1527
1463 1467 1470 1475 1479 1484 1488 1492 1495 1499 1503 1507 1510 1512 1514 1516 1518 1521 1524 1527 1529 1530 1530 1530 1530 1534 1536 1537 1539 1540 1541 1540 1538 1537 1535 1535 1533 1532 1531 1529 1525 1522 1520
1456 1459 1464 1468 1472 1476 1481 1486 1490 1494 1497 1501 1502 1505 1506 1507 1513 1517 1521 1522 1524 1525 1525 1526 1526 1528 1530 1533 1534 1535 1535 1534 1532 1531 1530 1527 1525 1526 1524 1522 1519 1517 1511
1449 1453 1458 1461 1465 1470 1476 1481 1485 1488 1493 1494 1497 1499 1501 1505 1508 1512 1515 1518 1520 1520 1521 1521 1523 1524 1526 1526 1528 1528 1528 1527 1526 1525 1522 1521 1520 1519 1518 1515 1513 1510 1507
1442 1447 1452 1456 1459 1464 1470 1475 1479 1482 1485 1488 1492 1494 1496 1497 1503 1507 1509 1511 1513 1514 1515 1516 1517 1519 1521 1522 1522 1522 1521 1520 1519 1518 1516 1515 1515 1513 1511 1509 1507 1503 1500
1433 1440 1445 1450 1454 1459 1464 1468 1473 1476 1480 1483 1486 1488 1489 1494 1497 1500 1503 1505 1505 1508 1510 1512 1512 1512 1514 1516 1516 1516 1516 1513 1513 1512 1511 1509 1508 1507 1507 1504 1501 1498 1494
1425 1432 1438 1445 1449 1454 1459 1464 1468 1472 1475 1478 1480 1483 1486 1489 1493 1494 1497 1498 1499 1502 1505 1505 1506 1506 1509 1511 1511 1510 1508 1507 1507 1506 1505 1504 1503 1502 1501 1498 1494 1491 1490
1423 1427 1434 1440 1447 1451 1455 1460 1464 1467 1471 1475 1477 1480 1483 1486 1489 1491 1492 1492 1494 1497 1499 1500 1498 1502 1504 1505 1505 1504 1503 1502 1502 1500 1499 1498 1497 1496 1494 1492 1490 1488 1485
1419 1424 1431 1438 1444 1448 1453 1457 1461 1465 1467 1471 1474 1477 1479 1482 1483 1485 1487 1489 1491 1493 1495 1494 1496 1498 1499 1499 1500 1499 1499 1497 1495 1494 1493 1492 1493 1491 1489 1488 1486 1484 1482
1417 1423 1430 1436 1441 1446 1448 1456 1459 1461 1465 1467 1470 1473 1475 1476 1478 1480 1482 1485 1487 1488 1489 1491 1492 1492 1494 1494 1495 1495 1495 1493 1491 1489 1489 1489 1487 1485 1484 1482 1481 1478 1476
1415 1422 1428 1433 1438 1444 1450 1453 1456 1459 1462 1466 1468 1470 1472 1472 1473 1475 1477 1478 1481 1482 1485 1486 1488 1488 1488 1490 1490 1490 1490 1489 1488 1487 1487 1485 1483 1481 1479 1479 1476 1473 1470
1414 1421 1427 1432 1438 1443 1446 1451 1454 1456 1460 1463 1465 1468 1469 1470 1471 1473 1476 1476 1477 1479 1481 1482 1485 1485 1485 1485 1484 1484 1485 1484 1484 1483 1482 1481 1479 1478 1476 1474 1472 1469 1466
1414 1421 1427 1432 1437 1441 1445 1449 1453 1455 1458 1462 1464 1465 1467 1469 1469 1471 1473 1475 1475 1477 1479 1481 1483 1483 1483 1483 1480 1481 1481 1481 1480 1479 1478 1477 1476 1475 1473 1470 1468 1466 1462
1415 1422 1426 1431 1437 1440 1443 1447 1450 1453 1455 1458 1461 1464 1466 1466 1468 1468 1470 1473 1474 1476 1478 1479 1479 1480 1479 1480 1480 1480 1480 1479 1477 1475 1475 1474 1473 1471 1469 1467 1465 1462 1459
1416 1421 1426 1429 1435 1438 1441 1445 1448 1450 1451 1454 1459 1462 1462 1463 1464 1466 1469 1470 1472 1473 1474 1474 1476 1476 1476 1476 1476 1476 1476 1474 1473 1472 1470 1470 1469 1468 1466 1464 1462 1460 1456
1418 1423 1422 1428 1433 1436 1441 1444 1445 1448 1449 1451 1456 1457 1459 1460 1461 1464 1467 1468 1470 1471 1472 1473 1472 1473 1474 1473 1473 1472 1471 1470 1470 1469 1468 1467 1467 1465 1464 1462 1460 1457 1453
1418 1420 1425 1426 1431 1435 1437 1441 1445 1447 1446 1448 1452 1452 1454 1457 1459 1462 1464 1465 1467 1468 1470 1469 1470 1470 1470 1469 1469 1468 1468 1468 1467 1467 1466 1466 1465 1463 1462 1460 1458 1455 1451
1416 1424 1424 1424 1428 1434 1436 1439 1443 1444 1443 1446 1448 1450 1451 1454 1457 1458 1460 1462 1464 1466 1467 1466 1467 1468 1467 1466 1466 1465 1465 1465 1465 1465 1464 1463 1462 1461 1460 1458 1455 1453 1450
1418 1421 1422 1424 1428 1432 1434 1437 1440 1441 1440 1443 1445 1446 1450 1453 1454 1457 1457 1458 1460 1461 1463 1463 1464 1465 1466 1464 1463 1462 1462 1463 1463 1462 1461 1461 1460 1460 1458 1456 1454 1451 1448
1419 1421 1420 1425 1426 1427 1433 1436 1437 1438 1438 1445 1443 1444 1447 1450 1452 1455 1455 1455 1456 1458 1458 1459 1460 1462 1462 1460 1459 1459 1460 1461 1459 1458 1458 1458 1458 1458 1456 1454 1452 1449 1446
1418 1419 1420 1422 1423 1426 1431 1433 1435 1439 1438 1439 1441 1442 1444 1448 1449 1449 1451 1452 1453 1454 1454 1454 1456 1458 1458 1457 1457 1457 1457 1457 1456 1456 1456 1456 1455 1455 1454 1453 1451 1448 1445
1418 1418 1418 1423 1422 1425 1430 1431 1430 1435 1435 1437 1440 1440 1441 1441 1444 1446 1446 1447 1449 1450 1451 1450 1451 1453 1454 1453 1453 1453 1453 1454 1454 1454 1453 1453 1453 1452 1453 1451 1449 1446 1445
1416 1418 1419 1420 1425 1426 1425 1428 1429 1430 1433 1434 1434 1436 1438 1438 1440 1442 1443 1444 1445 1444 1445 1446 1447 1449 1450 1449 1449 1450 1450 1450 1450 1450 1450 1450 1450 1451 1450 1449 1448 1446 1444
Wind_Speed
40 38 39 39 37 36 36 34 33 31 28 28 27 28 23 22 21 19 18 15 15 12 10 16 16 15 15 13 10 9 9 8 12 16 18 15 18 18 17 18 21 21 19
42 40 40 39 39 39 40 39 37 34 35 34 36 32 29 26 25 22 20 23 22 17 14 13 17 18 11 10 9 7 10 13 16 18 14 17 17 19 20 24 22 23 22
42 43 43 41 41 41 42 41 40 38 40 40 39 38 35 33 32 26 21 20 21 20 19 15 14 16 17 15 14 15 17 16 15 17 21 19 24 22 23 23 23 24 25
43 44 44 44 44 42 42 41 39 42 42 42 43 41 37 37 35 30 25 22 20 21 21 18 16 16 18 19 20 19 17 16 17 15 19 20 20 26 26 24 20 22 30
45 44 45 44 43 43 41 42 42 40 42 40 41 40 38 38 37 33 29 25 21 21 21 19 18 21 22 22 20 18 18 19 21 25 26 28 30 26 27 32 35 37 36
46 47 42 42 42 42 42 40 38 38 35 36 38 38 40 40 37 34 28 24 22 24 23 22 21 18 19 19 23 22 24 25 25 25 28 28 29 30 32 31 27 28 31
46 46 44 42 44 42 39 37 37 36 34 38 37 37 38 37 32 27 25 23 23 25 22 23 19 20 21 21 23 24 26 25 28 31 26 27 28 29 27 26 27 28 32
45 43 44 43 43 41 38 36 36 37 39 38 36 35 37 36 32 35 30 26 28 25 24 22 19 20 21 22 25 25 26 27 29 25 26 27 26 26 25 27 32 28 25
44 41 42 38 40 39 36 35 36 37 34 33 30 31 34 30 28 33 31 31 28 31 29 24 24 23 23 22 24 28 28 29 23 23 22 23 25 27 27 22 23 24 27
43 44 37 35 32 35 34 32 30 27 28 26 24 25 26 23 26 23 19 21 27 29 26 24 24 23 23 23 25 28 26 22 20 19 22 24 25 27 17 20 24 29 28
37 34 34 31 32 29 28 26 23 21 18 19 19 16 15 15 19 19 19 20 23 24 21 25 27 18 21 21 19 19 19 21 22 23 26 24 18 18 18 14 14 15 19
30 28 29 30 29 27 26 21 17 17 18 17 15 15 16 18 18 18 16 16 17 18 19 8 13 13 16 22 19 19 20 22 24 22 19 13 19 14 17 20 22 26 25
27 27 27 26 24 21 20 17 17 17 16 15 13 11 14 15 15 16 17 19 19 18 19 20 21 20 21 17 17 19 16 15 18 11 11 16 18 19 21 21 19 20 22
29 28 26 25 24 19 19 19 18 17 14 12 12 12 11 12 12 10 11 16 21 18 15 15 19 17 14 15 12 11 12 10 10 11 17 15 14 17 18 19 21 22 25
27 25 23 22 22 22 21 19 16 15 13 11 8 7 9 8 7 4 4 8 11 12 14 9 8 9 10 14 16 11 8 8 8 10 15 16 18 16 17 18 20 21 20
23 21 22 22 21 22 19 19 17 15 14 11 11 11 11 12 9 5 2 1 3 4 8 11 11 13 14 10 7 5 6 8 7 12 14 18 16 17 17 18 17 18 20
20 23 21 16 15 17 16 15 16 16 15 15 15 13 9 7 7 5 4 5 8 10 12 13 9 11 9 10 9 9 10 12 14 15 12 13 14 14 15 16 16 18 19
20 17 18 17 13 13 16 10 10 14 16 15 14 11 11 10 8 6 7 8 9 8 5 3 7 6 5 8 9 9 10 11 11 12 15 16 9 13 14 15 16 18 20
21 18 17 13 15 16 17 15 16 11 16 11 12 11 12 12 8 8 9 9 7 7 7 6 4 6 6 7 9 9 11 12 11 11 10 9 10 11 13 14 16 18 19
14 13 16 15 17 15 13 13 13 14 22 14 10 7 10 12 10 9 10 11 9 5 6 7 7 9 10 11 11 11 10 8 8 8 9 10 9 11 12 14 16 18 20
10 11 14 15 13 13 13 12 13 14 13 13 11 8 4 8 8 7 8 8 6 6 7 9 9 7 9 10 10 8 6 6 7 7 8 8 9 10 12 14 14 17 19
12 11 11 10 13 15 14 11 11 8 7 14 15 13 10 10 7 9 12 14 13 9 10 9 9 8 6 8 11 12 10 5 7 8 7 6 7 8 13 10 15 16 17
11 10 8 13 16 19 9 9 8 8 7 8 6 7 15 13 9 9 12 11 10 13 12 13 9 8 7 11 12 9 5 5 7 6 6 6 5 9 11 11 14 15 14
10 6 10 10 12 10 8 12 6 6 9 5 8 9 10 10 12 14 16 14 14 13 12 13 11 7 9 10 10 7 8 11 13 13 9 7 2 8 8 12 13 11 17
8 3 6 7 8 9 10 8 5 15 9 10 7 9 10 11 14 15 17 15 15 15 19 18 13 8 10 13 12 12 13 15 17 17 13 9 2 5 11 9 11 9 13
3 7 8 2 3 5 2 6 4 4 11 11 12 13 15 14 12 13 15 15 15 11 12 11 10 12 11 9 11 12 13 14 13 10 9 6 2 5 10 5 8 10 10
Wind_Direction
214 214 214 218 221 216 212 217 222 219 220 221 233 242 237 225 223 224 216 216 227 227 213 215 222 231 228 223 243 243 254 273 283 281 291 295 302 300 298 289 281 290 294
210 210 216 220 221 223 218 218 222 220 223 226 231 237 240 233 226 227 221 210 221 230 234 223 225 231 230 234 235 257 262 265 279 291 293 303 304 295 293 290 290 286 284
204 210 216 220 223 226 228 225 223 227 227 231 234 237 239 237 230 229 227 225 223 229 229 229 225 221 222 235 243 245 255 262 272 283 289 300 301 300 309 307 307 295 279
206 209 211 219 226 229 231 233 231 231 234 233 238 242 244 242 237 231 229 229 232 231 226 230 233 231 234 237 239 250 263 267 276 272 295 296 294 301 306 299 288 280 292
207 207 213 219 226 228 228 231 236 235 235 239 237 241 245 241 237 230 228 233 241 236 230 230 229 228 233 249 251 257 264 275 280 278 278 283 290 291 286 285 291 291 288
208 211 215 219 224 227 226 226 228 230 233 234 239 242 243 241 238 232 233 237 240 241 236 227 230 232 244 250 256 259 259 268 276 281 283 280 284 287 291 293 292 292 299
209 210 215 219 222 225 226 225 226 232 233 238 240 243 240 242 229 222 236 238 249 243 232 233 243 235 242 255 272 273 271 278 287 287 282 280 285 291 292 290 295 293 290
206 213 212 216 219 222 223 224 223 228 233 236 240 246 239 240 228 223 224 241 257 233 231 234 241 245 244 252 266 271 274 281 292 280 276 285 288 290 288 292 295 297 306
208 208 211 211 215 214 216 217 225 228 237 242 244 243 238 241 237 246 254 267 239 227 230 235 243 253 257 261 267 268 281 287 283 282 287 288 286 282 287 288 297 298 296
206 207 202 200 206 205 214 223 232 235 236 238 239 242 248 252 246 256 251 246 239 233 237 241 247 254 256 265 271 281 281 285 284 279 272 275 275 289 290 289 299 283 289
200 197 193 199 200 206 217 226 220 225 224 228 235 245 244 236 239 248 259 245 232 236 244 252 251 250 263 269 280 276 277 280 280 278 281 288 292 300 299 301 298 289 290
187 186 190 198 204 208 213 213 205 213 220 223 230 228 226 231 246 252 236 232 239 232 244 261 236 255 277 284 274 275 284 285 284 284 290 291 299 288 286 284 284 288 297
173 177 184 188 181 197 189 196 203 207 214 215 215 223 222 232 248 245 235 229 229 239 251 261 266 264 281 274 273 293 297 305 299 286 295 285 277 290 294 303 307 303 303
165 174 179 183 184 182 189 192 196 198 203 199 200 216 233 236 240 224 229 228 232 245 244 256 272 275 284 286 285 289 302 309 320 288 286 299 307 295 301 307 307 308 306
172 176 175 181 180 175 181 182 189 183 180 198 205 218 188 196 212 215 225 221 221 236 247 249 267 294 290 292 280 269 295 294 284 279 282 288 289 305 306 305 307 313 314
168 170 170 177 180 175 181 177 179 182 193 194 181 191 196 198 202 199 203 212 206 186 197 214 252 271 277 289 313 281 287 279 263 272 272 289 307 304 309 313 318 316 318
160 161 159 166 171 174 178 191 191 190 189 205 214 215 214 207 203 194 227 241 225 225 239 256 266 274 268 273 274 278 283 279 287 299 307 297 296 305 312 314 319 320 321
159 154 159 165 176 171 179 181 195 207 199 199 200 219 223 196 187 206 225 223 224 244 263 245 250 262 272 279 271 268 271 269 278 284 284 288 305 311 313 317 320 321 319
166 164 157 167 180 172 173 186 205 207 179 192 188 214 206 196 208 216 212 218 215 266 277 240 241 254 264 276 276 267 272 281 291 311 340 340 310 312 314 319 320 322 321
164 175 174 181 179 165 173 187 201 200 188 195 211 217 214 213 224 224 233 248 226 231 256 253 256 266 264 276 268 267 282 300 304 307 307 304 315 312 316 320 320 322 326
159 194 182 173 186 182 187 196 209 201 213 223 217 219 193 216 212 234 248 251 215 240 257 248 238 265 276 288 298 308 304 305 299 292 296 298 308 319 323 316 322 328 331
193 178 178 182 186 183 187 202 206 200 231 189 187 209 212 226 197 238 236 219 226 257 228 261 241 245 279 257 249 257 277 281 289 274 278 297 309 324 318 326 331 332 336
173 182 194 213 182 184 186 181 207 199 221 226 191 192 200 203 208 234 240 228 236 232 240 240 238 252 268 269 272 287 257 264 260 267 276 288 315 324 325 332 334 330 332
194 176 164 163 167 169 211 222 204 207 192 221 262 228 187 192 227 232 256 252 261 255 225 228 228 229 243 252 267 283 246 240 250 257 282 285 318 319 338 336 334 325 344
163 197 206 223 212 198 235 239 240 225 216 222 199 202 217 233 252 260 238 240 228 251 250 240 233 244 254 263 251 243 250 254 265 277 283 282 281 22 327 308 340 334 345
189 214 202 26 218 230 202 260 266 245 227 234 233 242 237 229 225 234 230 242 246 257 230 240 229 226 224 250 268 273 276 280 275 272 275 268 157 350 304 334 343 341 342